[[{"header":{"parameterUnit":"m.s-1","parameterCategory":1,"la1":30.2991,"la2":30.254,"lo1":-89.0895,"lo2":-89.0444,"dy":0.0017,"dx":0.0017,"nx":28,"ny":28,"refTime":"2025-02-11T09:00:00:Z","depth":0,"parameterNumber":2,"parameterNumberName":"U-component_of_WINDS"},"data":[0,0,0,0,0,0,0,0,0,0,0,0,0,0,0,0,0,0,0,0,0,0,0,0,0,0,0,0,0,0,0,0,0,0,0,0,0,0,0,0,0,0,0,0,0,0,0,0,0,0,0,0,0,0,0,0,0,0,-0.3197,-0.3197,0,-0.3153,-0.3153,-0.3152,-0.3167,-0.3168,-0.3169,-0.317,-0.3121,-0.3119,-0.3117,0,0,0,0,0,0,0,0,0,0,0,0,0,-0.329,-0.3288,-0.3197,-0.3197,-0.3196,-0.3153,-0.3153,-0.3152,-0.3167,-0.3168,-0.3169,-0.317,-0.3122,-0.3119,-0.3117,0,0,0,0,0,0,0,0,0,0,0,0,0,-0.3248,-0.3288,-0.3197,-0.3198,-0.3198,-0.3153,-0.3153,-0.3152,-0.3166,-0.3168,-0.3169,-0.3171,-0.3123,-0.312,-0.3116,-0.3067,0,0,-0.3106,-0.3105,0,0,0,0,0,0,0,0,-0.325,-0.3245,-0.3199,-0.3198,-0.3198,-0.3167,-0.3168,-0.3123,-0.3166,-0.3178,-0.317,-0.3171,-0.3135,-0.3131,-0.3119,-0.3065,-0.3063,-0.3106,-0.3104,-0.3103,-0.3102,0,0,0,0,0,0,0,-0.3253,-0.3247,-0.318,-0.3198,-0.3197,-0.32,-0.3195,-0.3159,-0.3149,-0.3177,-0.3178,-0.3173,-0.3135,-0.3122,-0.3118,-0.3062,-0.3106,-0.3103,-0.3101,-0.31,-0.2962,-0.2961,0,0,0,0,0,0,-0.3257,-0.3249,-0.3181,-0.3179,-0.3228,-0.3197,-0.3192,-0.3175,-0.3149,-0.3147,-0.3172,-0.3174,-0.3127,-0.3122,-0.3117,-0.3055,-0.3103,-0.31,-0.3098,-0.2964,-0.2962,-0.296,0,0,0,0,0,0,-0.3259,-0.3251,-0.3183,-0.3214,-0.3205,-0.3194,-0.3175,-0.3174,-0.3161,-0.3145,-0.3143,-0.3161,-0.3128,-0.3121,-0.3079,-0.3054,-0.3098,-0.3095,-0.2966,-0.2963,-0.2961,-0.2934,0,0,0,0,0,0,-0.3262,-0.3251,-0.3234,-0.3213,-0.3204,-0.3147,-0.3174,-0.3172,-0.3156,-0.3158,-0.3135,-0.3132,-0.3129,-0.3084,-0.3076,-0.305,-0.3093,-0.2968,-0.2965,-0.2962,-0.2937,-0.2931,-0.2925,0,0,0,0,0,-0.3265,-0.3228,-0.3233,-0.3225,-0.3182,-0.3146,-0.314,-0.3138,-0.3154,-0.3135,-0.3125,-0.3133,-0.3058,-0.3079,-0.307,-0.3044,-0.297,-0.2966,-0.2962,-0.2939,-0.2932,-0.2925,0,0,0,0,0,0,-0.3245,-0.3225,-0.3231,-0.3186,-0.3168,-0.3149,-0.3125,-0.3131,-0.3106,-0.3109,-0.3107,-0.3101,-0.3057,-0.3047,-0.307,-0.2993,-0.3016,-0.301,-0.3002,-0.2995,-0.2989,-0.2992,-0.309,0,0,0,0,0,-0.3235,-0.3209,-0.3193,-0.3155,-0.3146,-0.3137,-0.3121,-0.3121,-0.3101,-0.3093,-0.308,-0.3059,-0.3031,-0.3013,-0.2986,-0.2936,-0.2929,-0.2913,-0.2907,-0.2902,-0.2897,-0.2867,-0.2858,-0.2948,-0.2948,-0.2948,0,0,-0.3215,-0.3201,-0.3185,-0.3151,-0.3137,-0.3108,-0.313,-0.3099,-0.3077,-0.3088,-0.3047,-0.3037,-0.3013,-0.2966,-0.2945,-0.2956,-0.2871,-0.2897,-0.2894,-0.2891,-0.2862,-0.2854,-0.2846,-0.2945,-0.2946,-0.2946,0,0,-0.3164,-0.3152,-0.3118,-0.3103,-0.3081,-0.3075,-0.3067,-0.3046,-0.3039,-0.2999,-0.3005,-0.2979,-0.2931,-0.2913,-0.2898,-0.2838,-0.2844,-0.2829,-0.2799,-0.277,-0.2762,-0.2756,-0.2732,-0.2724,-0.2824,-0.2824,-0.2824,0,-0.3141,-0.31,-0.3099,-0.3067,-0.3051,-0.306,-0.3024,-0.301,-0.298,-0.2967,-0.2981,-0.2919,-0.2905,-0.2852,-0.2837,-0.2826,-0.2814,-0.2831,-0.2764,-0.2757,-0.2751,-0.2729,-0.272,-0.2822,-0.2823,-0.2823,-0.2823,0,-0.3072,-0.3042,-0.3017,-0.2988,-0.2969,-0.2936,-0.2929,-0.2909,-0.291,-0.2903,-0.2859,-0.2842,-0.2811,-0.2799,-0.28,-0.2746,-0.2753,-0.2765,-0.2787,-0.2741,-0.272,-0.2711,-0.282,-0.2821,-0.2821,-0.2822,0,0,-0.3006,-0.2977,-0.2967,-0.2953,-0.2929,-0.2906,-0.2871,-0.2842,-0.2824,-0.2803,-0.2772,-0.2731,-0.2741,-0.2724,-0.2723,-0.2698,-0.2648,-0.2712,-0.2712,-0.2699,-0.2585,-0.2575,-0.2565,-0.2653,-0.2651,-0.265,-0.2586,0,-0.2951,-0.2892,-0.289,-0.2835,-0.2806,-0.2814,-0.2784,-0.2765,-0.2756,-0.2729,-0.272,-0.2689,-0.2707,-0.2696,-0.2671,-0.2659,-0.2625,-0.2664,-0.2622,-0.2621,-0.2626,-0.2554,-0.2543,-0.2484,-0.2578,-0.2577,-0.2576,0,-0.2879,-0.2855,-0.2798,-0.2775,-0.2763,-0.2736,-0.2707,-0.2683,-0.266,-0.2656,-0.2636,-0.2638,-0.2601,-0.2626,-0.2573,-0.26,-0.2583,-0.2574,-0.2572,-0.2566,-0.2594,-0.2544,-0.2466,-0.2456,-0.2563,-0.2564,-0.2565,0,-0.2834,-0.2788,-0.2747,-0.2735,-0.2709,-0.2689,-0.2677,-0.2656,-0.2638,-0.2612,-0.26,-0.257,-0.2553,-0.253,-0.2523,-0.2542,-0.247,-0.2495,-0.2463,-0.2463,-0.2446,-0.2447,-0.2361,-0.2438,-0.2438,-0.2439,-0.2439,0,-0.2772,-0.2736,-0.2726,-0.2701,-0.266,-0.2657,-0.2616,-0.2605,-0.2586,-0.2557,-0.2562,-0.2535,-0.2529,-0.2499,-0.2494,-0.245,-0.2443,-0.2437,-0.2435,-0.2435,-0.2436,-0.2422,-0.2426,-0.2436,-0.2437,-0.2437,-0.2438,0,-0.2715,-0.2707,-0.2663,-0.2641,-0.2635,-0.2605,-0.2586,-0.256,-0.2552,-0.2515,-0.2506,-0.2493,-0.2459,-0.245,-0.2409,-0.2406,-0.2353,-0.2356,-0.236,-0.236,-0.2328,-0.233,-0.2229,-0.2215,-0.2303,-0.2302,-0.2301,0,-0.2675,-0.2647,-0.2622,-0.2603,-0.259,-0.256,-0.2541,-0.2537,-0.2516,-0.2488,-0.2465,-0.2431,-0.2404,-0.2349,-0.2334,-0.2303,-0.2304,-0.2271,-0.2299,-0.2299,-0.2301,-0.2302,-0.2298,-0.2265,-0.2264,-0.2263,-0.2263,0,-0.2603,-0.2601,-0.2573,-0.2544,-0.2521,-0.2497,-0.2475,-0.2459,-0.2451,-0.2428,-0.2393,-0.2372,-0.233,-0.2295,-0.2263,-0.2249,-0.2253,-0.2254,-0.2245,-0.2243,-0.2246,-0.2242,-0.2343,-0.2256,-0.2257,-0.2257,-0.2258,-0.2258,-0.2552,-0.2527,-0.2505,-0.2473,-0.2456,-0.2434,-0.2409,-0.2397,-0.2368,-0.2334,-0.2333,-0.2294,-0.227,-0.2227,-0.2211,-0.218,-0.219,-0.2177,-0.2173,-0.2169,-0.2165,-0.2252,-0.2174,-0.2174,-0.2175,-0.2175,-0.2175,0,-0.2479,-0.2465,-0.2436,-0.2404,-0.2379,-0.2387,-0.2362,-0.2339,-0.2306,-0.2283,-0.2256,-0.2215,-0.2181,-0.2164,-0.213,-0.2108,-0.2109,-0.2099,-0.21,-0.2096,-0.216,-0.217,-0.2099,-0.2099,-0.2099,-0.2099,-0.2099,-0.2099,-0.2438,-0.2395,-0.2389,-0.2336,-0.2322,-0.2285,-0.227,-0.2249,-0.2231,-0.2185,-0.2157,-0.2146,-0.2125,-0.2089,-0.2058,-0.2054,-0.204,-0.2029,-0.2025,-0.2084,-0.2092,-0.2099,-0.2109,-0.2026,-0.2026,-0.1964,-0.1963,-0.1963]},{"header":{"parameterUnit":"m.s-1","parameterCategory":1,"la1":30.2991,"la2":30.254,"lo1":-89.0895,"lo2":-89.0444,"dy":0.0017,"dx":0.0017,"nx":28,"ny":28,"refTime":"2025-02-11T09:00:00:Z","depth":0,"parameterNumber":3,"parameterNumberName":"V-component_of_WINDS"},"data":[0,0,0,0,0,0,0,0,0,0,0,0,0,0,0,0,0,0,0,0,0,0,0,0,0,0,0,0,0,0,0,0,0,0,0,0,0,0,0,0,0,0,0,0,0,0,0,0,0,0,0,0,0,0,0,0,0,0,3.7537,3.754,0,3.7838,3.7842,3.7845,3.7959,3.7959,3.7958,3.7957,3.8268,3.8277,3.8286,0,0,0,0,0,0,0,0,0,0,0,0,0,3.7066,3.7074,3.7537,3.7541,3.7545,3.7838,3.7842,3.7846,3.796,3.7959,3.7957,3.7956,3.8265,3.8276,3.8287,0,0,0,0,0,0,0,0,0,0,0,0,0,3.7309,3.7077,3.7536,3.7637,3.7649,3.7837,3.7842,3.7847,3.796,3.7958,3.7957,3.7956,3.8261,3.8275,3.8288,3.84,0,0,3.833,3.8336,0,0,0,0,0,0,0,0,3.7295,3.7326,3.7618,3.763,3.7644,3.786,3.779,3.8032,3.796,3.7842,3.7957,3.7955,3.8133,3.8158,3.8217,3.8414,3.8428,3.8331,3.8339,3.8345,3.8349,0,0,0,0,0,0,0,3.7278,3.7314,3.7656,3.7622,3.7638,3.7668,3.7701,3.7836,3.7992,3.7852,3.7861,3.7895,3.814,3.8204,3.8225,3.8432,3.8331,3.8343,3.8351,3.8357,3.8742,3.8744,0,0,0,0,0,0,3.7244,3.7299,3.7647,3.7665,3.7463,3.7678,3.7715,3.7792,3.799,3.8019,3.7896,3.7899,3.8181,3.8209,3.8237,3.8385,3.8345,3.8358,3.8366,3.874,3.8743,3.8745,0,0,0,0,0,0,3.7234,3.7274,3.7635,3.7485,3.7533,3.7687,3.7773,3.7799,3.7862,3.8024,3.8052,3.7932,3.8181,3.8217,3.836,3.8397,3.8364,3.8377,3.8738,3.8741,3.8744,3.8678,0,0,0,0,0,0,3.722,3.727,3.7312,3.7485,3.7541,3.775,3.7775,3.7805,3.7885,3.7892,3.8065,3.8092,3.8183,3.8338,3.8373,3.8415,3.8387,3.8735,3.8739,3.8743,3.8678,3.8678,3.8679,0,0,0,0,0,3.7202,3.7281,3.7313,3.7355,3.7597,3.7752,3.7784,3.7886,3.7887,3.7933,3.8037,3.8087,3.8386,3.8352,3.8392,3.8438,3.8734,3.8738,3.8743,3.8677,3.8678,3.8679,0,0,0,0,0,0,3.7108,3.7305,3.7344,3.748,3.7598,3.7771,3.7831,3.7883,3.8004,3.8006,3.8128,3.8166,3.8299,3.8383,3.8341,3.856,3.8564,3.8577,3.85,3.8503,3.8503,3.8481,3.8399,0,0,0,0,0,3.7102,3.7211,3.7378,3.7482,3.754,3.7675,3.7746,3.7815,3.7943,3.7994,3.8109,3.8232,3.8355,3.8433,3.8555,3.869,3.8732,3.8742,3.8743,3.8743,3.8753,3.8836,3.8844,3.876,3.876,3.876,0,0,3.7093,3.7215,3.7275,3.7467,3.7567,3.7679,3.7716,3.7832,3.7917,3.8012,3.8154,3.8243,3.8389,3.8529,3.8597,3.8603,3.8785,3.8749,3.8747,3.8758,3.8841,3.8849,3.8856,3.8763,3.8763,3.8762,0,0,3.7134,3.7235,3.7335,3.7435,3.7587,3.7677,3.77,3.7867,3.793,3.8074,3.8149,3.8253,3.846,3.8563,3.8642,3.8726,3.8778,3.8762,3.8767,3.8846,3.8853,3.886,3.8893,3.8904,3.8772,3.8772,3.8771,0,3.7104,3.7274,3.738,3.7494,3.7578,3.7669,3.7773,3.7865,3.8048,3.8105,3.8109,3.8375,3.8479,3.8647,3.8668,3.8728,3.8762,3.8744,3.8843,3.8851,3.8859,3.8892,3.8904,3.8769,3.8769,3.8769,3.877,0,3.7231,3.7349,3.7412,3.7587,3.7678,3.7786,3.7911,3.7991,3.8052,3.8142,3.8291,3.842,3.8571,3.8616,3.8676,3.8794,3.8794,3.8819,3.8826,3.8862,3.8896,3.891,3.8765,3.8766,3.8767,3.8768,0,0,3.7219,3.7455,3.7477,3.756,3.7735,3.7829,3.7943,3.8091,3.8159,3.8282,3.8384,3.8559,3.8585,3.8675,3.8748,3.8817,3.8881,3.8835,3.884,3.8842,3.9024,3.9006,3.9019,3.8916,3.8918,3.8921,3.9013,0,3.7286,3.7493,3.7594,3.7758,3.787,3.796,3.806,3.818,3.8268,3.8378,3.8476,3.86,3.8622,3.8678,3.875,3.8857,3.892,3.8852,3.9014,3.9019,3.8977,3.9036,3.9017,3.9097,3.9027,3.9029,3.9031,0,3.739,3.7515,3.769,3.7857,3.7908,3.7996,3.8142,3.8245,3.8384,3.8444,3.8546,3.8619,3.8745,3.8742,3.8921,3.8872,3.8945,3.9008,3.9014,3.9035,3.9028,3.9062,3.9125,3.9138,3.9052,3.905,3.9049,0,3.7368,3.758,3.7714,3.7782,3.7978,3.8039,3.8124,3.8262,3.8346,3.8474,3.8531,3.8672,3.875,3.8859,3.8969,3.8955,3.9139,3.9143,3.9195,3.9192,3.923,3.9227,3.9309,3.9272,3.9272,3.9271,3.9271,0,3.7433,3.7538,3.7708,3.7789,3.7911,3.8027,3.8145,3.8237,3.836,3.8464,3.855,3.8646,3.8784,3.8898,3.8985,3.9122,3.9156,3.921,3.9232,3.9204,3.9197,3.9255,3.9253,3.9275,3.9274,3.9273,3.9273,0,3.7429,3.7547,3.7699,3.7874,3.792,3.8002,3.8153,3.8238,3.8332,3.8463,3.85,3.8648,3.8787,3.8907,3.909,3.9149,3.9292,3.9317,3.9245,3.9258,3.9304,3.9299,3.9428,3.9453,3.9395,3.9395,3.9396,0,3.7464,3.7547,3.7732,3.7808,3.7892,3.8012,3.8099,3.8218,3.8306,3.8474,3.8539,3.8685,3.8808,3.9028,3.9152,3.9295,3.9326,3.9362,3.9348,3.9318,3.9331,3.9326,3.9337,3.9362,3.9362,3.9362,3.9362,0,3.7515,3.757,3.7691,3.7835,3.7937,3.8055,3.8177,3.8234,3.8377,3.8471,3.8615,3.8711,3.89,3.9045,3.9202,3.9292,3.9353,3.9366,3.9386,3.9359,3.9315,3.9343,3.925,3.9362,3.9362,3.9362,3.9362,3.9362,3.7534,3.7614,3.7757,3.7892,3.7996,3.8108,3.8198,3.8304,3.8426,3.8589,3.8652,3.88,3.8943,3.9159,3.925,3.937,3.9379,3.9407,3.9415,3.9421,3.9418,3.9294,3.9398,3.9398,3.9398,3.9399,3.9399,0,3.7592,3.769,3.7812,3.798,3.8087,3.8134,3.8272,3.8358,3.8487,3.8614,3.8735,3.8903,3.9045,3.9182,3.9332,3.9402,3.9434,3.9438,3.9435,3.9456,3.9399,3.9368,3.941,3.941,3.941,3.941,3.941,3.941,3.7635,3.7774,3.7846,3.8039,3.8137,3.8283,3.8358,3.8464,3.8567,3.875,3.8869,3.8958,3.9091,3.9252,3.9386,3.9423,3.9476,3.9473,3.9517,3.9462,3.9459,3.9457,3.9429,3.9482,3.9483,3.9565,3.9566,3.9567]}]]